This is the latest recevied weather packets stored in our database for station/object EA3KZ-1. If no packets are shown the sender has not sent any weather packets the latest 10 day(s).
| Time | Temp. | Humidity | Pressure | Rain* | Wind** | Luminosity | Snow |
|---|---|---|---|---|---|---|---|
| 1777395636 | 20.56° C | 54% | 1007.9 hPa | 0 mm | - | - | - |
| 1777395033 | 21.11° C | 51% | 1007.8 hPa | 0 mm | - | - | - |
| 1777394431 | 21.67° C | 51% | 1007.9 hPa | 0 mm | - | - | - |
| 1777393828 | 21.67° C | 50% | 1007.8 hPa | 0 mm | - | - | - |
| 1777393226 | 21.67° C | 47% | 1007.8 hPa | 0 mm | - | - | - |
| 1777392623 | 21.67° C | 48% | 1007.8 hPa | 0 mm | - | - | - |
| 1777392020 | 22.22° C | 47% | 1007.7 hPa | 0 mm | - | - | - |
| 1777391418 | 22.22° C | 45% | 1007.8 hPa | 0 mm | - | - | - |
| 1777390815 | 22.78° C | 45% | 1007.6 hPa | 0 mm | - | - | - |
| 1777390273 | 22.22° C | 44% | 1007.9 hPa | 0 mm | - | - | - |
| 1777389670 | 22.22° C | 41% | 1007.9 hPa | 0 mm | - | - | - |
| 1777389068 | 23.89° C | 42% | 1008.2 hPa | 0 mm | - | - | - |
| 1777388465 | 23.89° C | 42% | 1008.1 hPa | 0 mm | - | - | - |
| 1777387862 | 24.44° C | 42% | 1008.2 hPa | 0 mm | - | - | - |
| 1777387259 | 23.89° C | 43% | 1008.4 hPa | 0 mm | - | - | - |
| 1777386657 | 23.33° C | 43% | 1008.5 hPa | 0 mm | - | - | - |
| 1777386054 | 23.89° C | 42% | 1008.4 hPa | 0 mm | - | - | - |
| 1777385451 | 23.89° C | 44% | 1008.4 hPa | 0 mm | - | - | - |
| 1777384849 | 24.44° C | 44% | 1008.4 hPa | 0 mm | - | - | - |
| 1777384246 | 24.44° C | 42% | 1008.5 hPa | 0 mm | - | - | - |
| 1777383644 | 23.33° C | 43% | 1008.5 hPa | 0 mm | - | - | - |
| 1777383041 | 24.44° C | 41% | 1008.7 hPa | 0 mm | - | - | - |
| 1777382439 | 24.44° C | 39% | 1008.8 hPa | 0 mm | - | - | - |
| 1777381836 | 24.44° C | 37% | 1008.7 hPa | 0 mm | - | - | - |
| 1777381233 | 24.44° C | 37% | 1009 hPa | 0 mm | - | - | - |
* Rain latest hour (hover to see other rain measurements)
** Current wind speed in m/s (hover to see current wind gust speed)